This demonstration page uses our WeatherBlox Daily Observations layout. Learn more.

38.89511, -77.03637

Hourly Observations for April 22, 2015

Temp ( °F °C ) Dew Point ( °F °C ) Humidity (%) Winds ( mph kmh ) Pressure ( in mb ) Visibility ( mi km ) Precip ( " mm )
12:52 am 00:52 Clear 55 12.8 38 3.3 53 53 S 6 9 29.81 1010 10 16.0934 0 0
1:52 am 01:52 Mostly Clear 54 12.2 41 5 62 62 SW 3 6 29.8 1009 10 16.0934 0 0
2:52 am 02:52 Mostly Clear 53 11.7 38 3.3 57 57 SW 5 7 29.8 1009 10 16.0934 0 0
3:52 am 03:52 Mostly Clear 53 11.7 36 2.2 52 52 Calm 29.8 1009 10 16.0934 0 0
4:52 am 04:52 Mostly Cloudy 51 10.6 37 2.8 59 59 S 6 9 29.79 1009 10 16.0934 0 0
5:52 am 05:52 Mostly Cloudy 53 11.7 36 2.2 52 52 SSW 5 7 29.79 1009 10 16.0934 0 0
6:52 am 06:52 Partly Cloudy 54 12.2 40 4.4 59 59 S 7 11 29.79 1009 10 16.0934 0 0
7:52 am 07:52 Partly Cloudy 57 13.9 41 5 55 55 S 10 17 29.78 1009 10 16.0934 0 0
8:52 am 08:52 Mostly Cloudy 60 15.6 42 5.6 52 52 S 8 13 29.76 1008 10 16.0934 0 0
9:52 am 09:52 Partly Cloudy 62 16.7 42 5.6 48 48 S 15 24 29.73 1007 10 16.0934 0 0
10:52 am 10:52 Mostly Sunny 67 19.4 41 5 39 39 S 17 28 29.69 1006 10 16.0934 0 0
11:52 am 11:52 Partly Cloudy 71 21.7 40 4.4 32 32 SSW 24 39 29.65 1004 10 16.0934 0 0
12:52 pm 12:52 Mostly Cloudy 73 22.8 39 3.9 29 29 SSW 23 37 29.61 1003 10 16.0934 0 0
1:17 pm 13:17 Mostly Cloudy 73 23 41 5 31 31 SSW 25 41 29.62 1003 10 16.0934 0 0
1:34 pm 13:34 Cloudy 72 22 37 3 29 29 SSW 16 26 29.62 1003 10 16.0934 0 0
1:52 pm 13:52 Cloudy 72 22.2 37 2.8 28 28 WSW 15 24 29.63 1003 10 16.0934 0 0
1:58 pm 13:58 Mostly Cloudy 70 21 39 4 33 33 NW 25 41 29.62 1003 10 16.0934 0 0
2:03 pm 14:03 Mostly Cloudy with Light Rain 66 19 45 7 46 46 NNW 22 35 29.62 1003 10 16.0934 0 0
2:19 pm 14:19 Mostly Cloudy 64 18 48 9 56 56 NW 17 28 29.62 1003 10 16.0934 0 0.0254
2:52 pm 14:52 Mostly Cloudy 65 18.3 47 8.3 52 52 NW 14 22 29.64 1004 10 16.0934 0 0.0254
3:52 pm 15:52 Mostly Cloudy 62 16.7 46 7.8 56 56 NNW 20 31 29.67 1005 10 16.0934 0 0.0254
4:52 pm 16:52 Mostly Cloudy 61 16.1 44 6.7 54 54 NW 18 30 29.69 1006 10 16.0934 0 0
5:52 pm 17:52 Mostly Cloudy 60 15.6 41 5 50 50 NNW 14 22 29.7 1006 10 16.0934 0 0
6:52 pm 18:52 Partly Cloudy 58 14.4 41 5 53 53 N 8 13 29.71 1006 10 16.0934 0 0
7:52 pm 19:52 Mostly Clear 59 15 38 3.3 46 46 NW 14 22 29.72 1007 10 16.0934 0 0
8:52 pm 20:52 Mostly Clear 57 13.9 36 2.2 45 45 NNW 9 15 29.74 1007 10 16.0934 0 0
9:52 pm 21:52 Partly Cloudy 57 13.9 33 0.6 41 41 NNW 10 17 29.74 1007 10 16.0934 0 0
10:52 pm 22:52 Mostly Clear 55 12.8 34 1.1 45 45 NNW 17 28 29.77 1008 10 16.0934 0 0
11:52 pm 23:52 Mostly Cloudy 53 11.7 35 1.7 51 51 NW 12 19 29.79 1009 10 16.0934 0 0

Powered by AerisWeather